Weather History for Delaware, OH

Change the Weather History Date:

Sunday, December 29, 2013

  Actual Average Record
Temperature  
Mean Temperature 36 °F -  
Max Temperature 41 °F 36 °F 67 °F (1984)
Min Temperature 30 °F 19 °F -4 °F (1961)
Degree Days  
Heating Degree Days 28    
Moisture  
Dew Point 32 °F    
Average Humidity 86    
Maximum Humidity 100    
Minimum Humidity 61    
Precipitation  
Precipitation 0.12 in - - ()
Sea Level Pressure  
Sea Level Pressure 29.86 in    
Wind  
Wind Speed 8 mph (SW)    
Max Wind Speed 21 mph    
Max Gust Speed 25 mph    
Visibility 8 miles    
Events Rain    
Averages and records for this station are not official NWS values.
T = Trace of Precipitation, MM = Missing Value Source: NWS Daily Summary

Daily Weather History Graph

Daily Weather History Graph

Search for Another Location

Airport:

Trip Planner

Search our weather history database for the weather conditions in past years. The results will help you decide how hot, cold, wet, or windy it might be!

Date:

Astronomy

Dec. 29, 2013 Rise Set
Actual Time 7:54 AM EST 5:14 PM EST
Civil Twilight 7:24 AM EST 5:45 PM EST
Nautical Twilight 6:49 AM EST 6:19 PM EST
Astronomical Twilight 6:16 AM EST 6:52 PM EST
Moon 4:36 AM EST (12/29) 2:52 PM EST (12/29)
Length of Visible Light 10h 21m
Length of Day
9h 20m
Waning Crescent, 11% of the Moon is Illuminated
Dec 29
Waning Crescent
Jan 1
New
Jan 7
First Quarter
Jan 15
Full
Jan 24
Last Quarter

Hourly Weather History & Observations

Time (EST) Temp. Windchill Dew Point Humidity Pressure Visibility Wind Dir Wind Speed Gust Speed Precip Events Conditions
12:19 AM 37.4 °F 32.1 °F 28.4 °F 70% 30.00 in 10.0 mi South 6.9 mph - N/A   Clear
12:39 AM 37.4 °F 31.4 °F 28.4 °F 70% 30.00 in 10.0 mi South 8.1 mph - N/A   Clear
12:59 AM 39.2 °F 33.6 °F 26.6 °F 61% 29.99 in 10.0 mi South 8.1 mph 16.1 mph N/A   Clear
1:19 AM 37.4 °F 31.4 °F 28.4 °F 70% 29.98 in 10.0 mi South 8.1 mph - N/A   Clear
1:39 AM 37.4 °F 31.4 °F 28.4 °F 70% 29.98 in 10.0 mi South 8.1 mph - N/A   Clear
1:59 AM 37.4 °F 32.1 °F 28.4 °F 70% 29.97 in 10.0 mi South 6.9 mph - N/A   Scattered Clouds
2:19 AM 37.4 °F 32.1 °F 28.4 °F 70% 29.96 in 10.0 mi South 6.9 mph - N/A   Mostly Cloudy
2:39 AM 37.4 °F 32.8 °F 28.4 °F 70% 29.95 in 10.0 mi South 5.8 mph - N/A   Overcast
2:59 AM 37.4 °F 32.8 °F 28.4 °F 70% 29.95 in 10.0 mi South 5.8 mph - N/A   Overcast
3:20 AM 37.4 °F 33.8 °F 28.4 °F 70% 29.95 in 10.0 mi South 4.6 mph - N/A   Overcast
3:39 AM 37.4 °F 32.8 °F 28.4 °F 70% 29.94 in 10.0 mi South 5.8 mph - N/A   Overcast
3:59 AM 37.4 °F 34.9 °F 28.4 °F 70% 29.92 in 10.0 mi SSE 3.5 mph - N/A   Overcast
4:20 AM 37.4 °F 34.9 °F 26.6 °F 65% 29.92 in 10.0 mi South 3.5 mph - N/A   Light Drizzle
4:39 AM 37.4 °F 32.8 °F 30.2 °F 75% 29.91 in 10.0 mi South 5.8 mph - N/A Rain Rain
4:59 AM 37.4 °F 31.4 °F 28.4 °F 70% 29.90 in 10.0 mi South 8.1 mph - N/A   Light Drizzle
5:20 AM 37.4 °F 30.8 °F 30.2 °F 75% 29.88 in 10.0 mi South 9.2 mph - N/A   Drizzle
5:39 AM 37.4 °F 32.1 °F 30.2 °F 75% 29.87 in 10.0 mi SSE 6.9 mph - N/A   Drizzle
5:59 AM 35.6 °F 31.7 °F 32.0 °F 87% 29.85 in 10.0 mi SSE 4.6 mph - N/A   Drizzle
6:20 AM 35.6 °F 32.8 °F 32.0 °F 87% 29.86 in 10.0 mi South 3.5 mph - N/A   Light Drizzle
6:39 AM 35.6 °F 31.7 °F 32.0 °F 87% 29.87 in 10.0 mi South 4.6 mph - N/A   Drizzle
6:59 AM 35.6 °F 31.7 °F 32.0 °F 87% 29.85 in 10.0 mi SSE 4.6 mph - N/A   Drizzle
7:19 AM 35.6 °F 30.7 °F 32.0 °F 87% 29.87 in 10.0 mi South 5.8 mph - N/A Rain Rain
7:39 AM 35.6 °F 31.7 °F 33.8 °F 93% 29.85 in 5.0 mi South 4.6 mph - 0.01 in Rain Rain
7:59 AM 35.6 °F 31.7 °F 33.8 °F 93% 29.86 in 4.0 mi SSW 4.6 mph - 0.03 in Rain Rain
8:19 AM 35.6 °F 30.7 °F 33.8 °F 93% 29.85 in 4.0 mi South 5.8 mph - 0.02 in Rain Rain
8:39 AM 35.6 °F 29.9 °F 33.8 °F 93% 29.85 in 4.0 mi West 6.9 mph - 0.03 in Rain Rain
8:59 AM 35.6 °F 32.8 °F 33.8 °F 93% 29.84 in 4.0 mi WSW 3.5 mph - 0.04 in Rain Light Rain
9:19 AM 35.6 °F 31.7 °F 33.8 °F 93% 29.83 in 3.0 mi SW 4.6 mph - 0.01 in Rain Rain
9:39 AM 35.6 °F 31.7 °F 33.8 °F 93% 29.83 in 4.0 mi SSW 4.6 mph - 0.02 in   Drizzle
9:59 AM 35.6 °F 32.8 °F 33.8 °F 93% 29.82 in 4.0 mi SSW 3.5 mph - 0.02 in   Drizzle
10:19 AM 35.6 °F 31.7 °F 33.8 °F 93% 29.81 in 3.0 mi SSW 4.6 mph - 0.01 in Rain Rain
10:39 AM 35.6 °F 29.9 °F 35.6 °F 100% 29.81 in 4.0 mi SW 6.9 mph - 0.01 in Rain Light Rain
11:00 AM 35.6 °F 29.9 °F 35.6 °F 100% 29.80 in 4.0 mi SW 6.9 mph - N/A Rain Rain
11:19 AM 35.6 °F 30.7 °F 35.6 °F 100% 29.80 in 5.0 mi SW 5.8 mph - N/A   Drizzle
11:39 AM 35.6 °F 31.7 °F 35.6 °F 100% 29.79 in 5.0 mi SW 4.6 mph - 0.01 in Rain Light Rain
11:59 AM 37.4 °F 33.8 °F 35.6 °F 93% 29.78 in 5.0 mi SW 4.6 mph - 0.01 in Rain Rain
12:19 PM 37.4 °F 33.8 °F 35.6 °F 93% 29.78 in 7.0 mi WSW 4.6 mph - 0.01 in Rain Rain
12:39 PM 37.4 °F 32.1 °F 37.4 °F 100% 29.77 in 5.0 mi West 6.9 mph - 0.01 in   Drizzle
12:59 PM 37.4 °F 33.8 °F 37.4 °F 100% 29.76 in 7.0 mi WSW 4.6 mph - 0.01 in   Overcast
1:19 PM 37.4 °F 31.4 °F 37.4 °F 100% 29.75 in 7.0 mi WSW 8.1 mph - N/A Rain Rain
1:39 PM 39.2 °F 35.0 °F 37.4 °F 93% 29.75 in 10.0 mi WSW 5.8 mph - N/A   Overcast
1:59 PM 39.2 °F 32.0 °F 35.6 °F 87% 29.76 in 10.0 mi West 11.5 mph - N/A Rain Rain
2:19 PM 37.4 °F 31.4 °F 35.6 °F 93% 29.75 in 10.0 mi SW 8.1 mph - N/A   Light Drizzle
2:39 PM 37.4 °F 32.1 °F 35.6 °F 93% 29.76 in 10.0 mi WSW 6.9 mph - N/A   Overcast
2:59 PM 37.4 °F 31.4 °F 35.6 °F 93% 29.76 in 10.0 mi WSW 8.1 mph - N/A   Overcast
3:19 PM 39.2 °F 33.6 °F 35.6 °F 87% 29.76 in 10.0 mi WSW 8.1 mph - N/A   Overcast
3:39 PM 39.2 °F 34.2 °F 35.6 °F 87% 29.76 in 10.0 mi WSW 6.9 mph - N/A   Overcast
3:59 PM 41.0 °F 36.4 °F 35.6 °F 81% 29.76 in 10.0 mi WSW 6.9 mph - N/A   Overcast
4:19 PM 39.2 °F 33.6 °F 35.6 °F 87% 29.77 in 10.0 mi WSW 8.1 mph - N/A   Overcast
4:40 PM 39.2 °F 34.2 °F 35.6 °F 87% 29.78 in 10.0 mi SW 6.9 mph - N/A   Overcast
4:59 PM 39.2 °F 33.6 °F 35.6 °F 87% 29.79 in 10.0 mi SW 8.1 mph - N/A   Overcast
5:19 PM 39.2 °F 33.0 °F 35.6 °F 87% 29.80 in 10.0 mi WSW 9.2 mph - N/A   Overcast
5:40 PM 39.2 °F 33.6 °F 35.6 °F 87% 29.80 in 10.0 mi WSW 8.1 mph - N/A   Overcast
5:59 PM 39.2 °F 33.6 °F 35.6 °F 87% 29.80 in 10.0 mi WSW 8.1 mph - N/A   Overcast
6:19 PM 39.2 °F 33.6 °F 35.6 °F 87% 29.82 in 10.0 mi WSW 8.1 mph - N/A   Overcast
6:40 PM 37.4 °F 29.8 °F 33.8 °F 87% 29.84 in 10.0 mi West 11.5 mph - N/A   Overcast
6:59 PM 37.4 °F 29.3 °F 32.0 °F 81% 29.85 in 10.0 mi West 12.7 mph 20.7 mph N/A   Overcast
7:19 PM 35.6 °F 25.5 °F 32.0 °F 87% 29.86 in 10.0 mi West 17.3 mph 21.9 mph N/A   Overcast
7:40 PM 35.6 °F 24.5 °F 32.0 °F 87% 29.87 in 10.0 mi West 20.7 mph 25.3 mph N/A   Overcast
7:59 PM 35.6 °F 24.8 °F 32.0 °F 87% 29.88 in 10.0 mi WNW 19.6 mph 24.2 mph N/A   Overcast
8:19 PM 35.6 °F 27.5 °F 32.0 °F 87% 29.90 in 7.0 mi West 11.5 mph - N/A   Overcast
8:39 PM 33.8 °F 24.3 °F 32.0 °F 93% 29.90 in 10.0 mi West 13.8 mph 21.9 mph N/A   Overcast
8:59 PM 33.8 °F 23.5 °F 32.0 °F 93% 29.90 in 7.0 mi West 16.1 mph 23.0 mph N/A   Overcast
9:19 PM 33.8 °F 22.8 °F 32.0 °F 93% 29.91 in 7.0 mi West 18.4 mph - N/A   Overcast
9:40 PM 33.8 °F 23.5 °F 32.0 °F 93% 29.91 in 5.0 mi West 16.1 mph 21.9 mph N/A   Overcast
9:59 PM 32.0 °F 21.2 °F 30.2 °F 93% 29.92 in 10.0 mi WNW 16.1 mph 25.3 mph N/A   Overcast
10:19 PM 32.0 °F 23.0 °F 30.2 °F 93% 29.93 in 10.0 mi WNW 11.5 mph 19.6 mph N/A   Overcast
10:39 PM 32.0 °F 20.8 °F 30.2 °F 93% 29.94 in 10.0 mi WNW 17.3 mph 23.0 mph N/A   Overcast
10:59 PM 32.0 °F 20.8 °F 28.4 °F 87% 29.95 in 10.0 mi WNW 17.3 mph - N/A   Overcast
11:19 PM 32.0 °F 22.1 °F 28.4 °F 87% 29.96 in 10.0 mi NW 13.8 mph - N/A   Overcast
11:40 PM 32.0 °F 20.8 °F 26.6 °F 80% 29.96 in 10.0 mi WNW 17.3 mph 23.0 mph N/A   Overcast
11:59 PM 30.2 °F 18.5 °F 26.6 °F 86% 29.97 in 10.0 mi WNW 17.3 mph 24.2 mph N/A   Overcast